ARIANE 2 DEB, 26726

Orbit data source: Space-Track

ARIANE 2 DEB, 26726 is space debris in HEO originally from a launch on Fri, 27 Jan 1989 UTC launched from the French Guiana (FRGUI). Debris objects in space refer to the collection of defunct objects orbiting the Earth. Examples of debris include non-operational satellites, rocket bodies, and fragments generated from explosions, collisions, or faulty payload assembly.

Loading next visibility...
Identifier
26726, 1989-006D
Orbit
HEO
Country
Flag of FRFR
Related business
Manufacturer
EADS/LV
Mission
Spacecraft
Bus & Motor
Unknown
Mass
Unknown
Launch date (UTC)
1989-01-27 (37 years ago)
Launch vehicle
Unknown
Launch site
French Guiana (FRGUI)
Object type
Payload
Rocket body
Debris
Shape & HBR
Unknown shape, 0.5 m
Radar Cross Section
Medium (>0.1 m² and <1 m²)

Expand to show TLE details & history
Last TLE update: 3 weeks ago

TLE from 3 weeks ago
0 ARIANE 2 DEB
1 26726U 89006D   25271.32524946 -.00000062  00000-0  59539-3 0  9991
2 26726   7.7653 200.2240 7163997 196.8123 157.0768  2.27610693205259
Epoch: 2025-09-28T07:48Z
TLE epoch observation values (Epoch: 2025-09-28T07:48:21.553Z)
Latitude
1.51722°
Longitude
86.98055°
Altitude
35,055.381 km
Speed
1.707 km/s
True Right ascension
14h 05m 39s
True Declination
1° 30' 56"
Sunlit
Object was in daylight at epoch
Visualization orbit readout
Latitude
Unknown
Longitude
Unknown
Altitude
Unknown
Speed
Unknown
Apparent Right ascension
Unknown
Apparent Declination
Unknown
Sunlit
N/A
Visualization observer readout
Local Sidereal Time
05:59:17
Azimuth
Unknown
Elevation
Unknown
Doppler factor
Unknown
Orbital elements
Apogee altitude
35,531.833 km
Perigee altitude
546.637 km
Semi-major axis
24,417.372 km
Eccentricity
0.7164
Inclination
7.7653°
RAAN
200.224°
Arg. of periapsis
196.8123°
True anomaly
174.5297°
Mean anomaly
157.0768°
Eccentric anomaly
166.59368°
Mean motion
0.56885 °/min
Orbital period
632.86 mins
BSTAR
0.00059539
Loading maneuver chart data...
Computing Atmospheric mass density...
Loading historical data...
Loading historical data...
Loading historical data...
Loading historical data...
Loading historical data...
Loading historical data...
Loading historical data...

Documentation

Showing up to 5 results
|